Southeast Shoal, Ontario

6:26 AM EDT on April 21, 2018 (GMT -0400)
Southeast Shoal

Weather History for CWNB - October, 2012

Change the Weather History Date:

Saturday, October 20, 2012

  Actual Average Record
Temperature  
Mean Temperature 51 °F -  
Max Temperature 54 °F - - ()
Min Temperature 48 °F - - ()
Degree Days  
Heating Degree Days 14    
Growing Degree Days 1 (Base 50)    
Moisture  
Dew Point 44 °F    
Average Humidity 78    
Maximum Humidity 85    
Minimum Humidity 69    
Precipitation  
Precipitation 0.00 in - - ()
Sea Level Pressure  
Sea Level Pressure 29.71 in    
Wind  
Wind Speed - ()    
Max Wind Speed -    
Max Gust Speed -    
T = Trace of Precipitation, MM = Missing Value Source: Averaged Metar Reports

Daily Weather History Graph

Daily Weather History Graph

Search for Another Location

Airport or City:

Astronomy

Oct. 20, 2012 Rise Set
Actual Time 7:48 AM EDT 6:40 PM EDT
Civil Twilight 7:20 AM EDT 7:08 PM EDT
Nautical Twilight 6:47 AM EDT 7:40 PM EDT
Astronomical Twilight 6:15 AM EDT 8:12 PM EDT
Moon 1:26 PM EDT (10/20) 11:22 PM EDT (10/20)
Length of Visible Light 11h 48m
Length of Day
10h 51m
Waxing Crescent, 34% of the Moon is Illuminated
Oct 20
Waxing Crescent
Oct 21
First Quarter
Oct 29
Full
Nov 6
Last Quarter
Nov 13
New

Hourly Weather History & Observations

Time (EDT) Temp. Dew Point Humidity Pressure Visibility Wind Dir Wind Speed Gust Speed Precip Events Conditions
12:00 AM 48.0 °F 43.2 °F 83% 29.63 in - North - - N/A   Unknown
1:00 AM 49.1 °F 44.8 °F 85% 29.62 in - North - - N/A   Unknown
2:00 AM 49 °F 44 °F 79% 29.62 in - Calm Calm - -  
2:00 AM 48.7 °F 44.4 °F 85% 29.62 in - North - - N/A   Unknown
3:00 AM 49.3 °F 44.8 °F 84% 29.63 in - North - - N/A   Unknown
4:00 AM 49.1 °F 44.2 °F 83% 29.63 in - North - - N/A   Unknown
5:00 AM 49.1 °F 43.9 °F 82% 29.64 in - North - - N/A   Unknown
6:00 AM 48.9 °F 44.1 °F 83% 29.65 in - North - - N/A   Unknown
7:00 AM 49.1 °F 44.1 °F 83% 29.65 in - North - - N/A   Unknown
8:00 AM 49 °F 44 °F 76% 29.67 in - Calm Calm - -  
8:00 AM 48.7 °F 43.9 °F 83% 29.67 in - North - - N/A   Unknown
9:00 AM 48.7 °F 43.0 °F 80% 29.68 in - North - - N/A   Unknown
10:00 AM 48.4 °F 42.6 °F 80% 29.69 in - North - - N/A   Unknown
11:00 AM 48.7 °F 43.7 °F 83% 29.71 in - North - - N/A   Unknown
12:00 PM 49.3 °F 43.9 °F 82% 29.72 in - North - - N/A   Unknown
1:00 PM 49.8 °F 43.9 °F 80% 29.73 in - North - - N/A   Unknown
2:00 PM 50 °F 44 °F 73% 29.74 in - Calm Calm - -  
2:00 PM 50.4 °F 43.9 °F 78% 29.74 in - North - - N/A   Unknown
3:00 PM 51.3 °F 43.0 °F 73% 29.75 in - North - - N/A   Unknown
4:00 PM 52.5 °F 43.7 °F 72% 29.76 in - North - - N/A   Unknown
5:00 PM 53.1 °F 44.4 °F 72% 29.78 in - North - - N/A   Unknown
6:00 PM 54.0 °F 44.2 °F 70% 29.80 in - North - - N/A   Unknown
7:00 PM 53.6 °F 44.4 °F 71% 29.83 in - North - - N/A   Unknown
8:00 PM 53 °F 46 °F 69% 29.84 in - Calm Calm - -  
8:00 PM 53.2 °F 45.7 °F 76% 29.84 in - North - - N/A   Unknown
9:00 PM 53.2 °F 45.5 °F 75% 29.86 in - North - - N/A   Unknown